Location: Columbia
(38.9520°N, 92.3340°W)
Time: 08:49:17
(UTC-06:00)

Cosmos 2219 Rocket - Visible Passes

Search period start: 24 February 2017 00:00
Search period end: 06 March 2017 00:00
Orbit: 830 x 845 km, 71.0° (Epoch: 23 February)

Date Brightness Start Highest point End Pass type
(mag) Time Alt. Az. Time Alt. Az. Time Alt. Az.
24 Feb 3.3 19:08:02 10° N 19:12:31 24° NE 19:13:35 22° ENE visible
24 Feb 3.3 20:51:20 10° NW 20:55:22 40° WNW 20:55:22 40° WNW visible
25 Feb 3.4 18:51:48 10° N 18:56:07 22° NE 18:58:31 17° E visible
25 Feb 2.8 20:34:56 10° NNW 20:40:18 52° WSW 20:40:18 52° WSW visible
26 Feb 3.5 18:35:34 10° N 18:39:42 21° NE 18:43:36 11° E visible
26 Feb 2.7 20:18:33 10° NNW 20:24:02 57° WSW 20:25:25 45° SSW visible
27 Feb 3.5 18:19:20 10° N 18:23:19 19° NE 18:27:16 10° E visible
27 Feb 2.5 20:02:10 10° NNW 20:07:42 62° WSW 20:10:46 26° S visible
28 Feb 2.4 19:45:48 10° NNW 19:51:22 67° WSW 19:56:27 12° S visible
01 Mar 2.4 19:29:26 10° NNW 19:35:02 73° WSW 19:40:37 10° SSE visible
02 Mar 2.3 19:13:04 10° NNW 19:18:42 79° WSW 19:24:18 10° SSE visible
03 Mar 2.2 18:56:43 10° NNW 19:02:21 85° WSW 19:07:58 10° SSE visible
04 Mar 2.2 18:40:22 10° NNW 18:46:01 88° ENE 18:51:38 10° SSE visible
04 Mar 5.3 20:27:57 10° W 20:29:05 11° W 20:30:13 10° WSW visible
05 Mar 2.2 18:24:01 10° NNW 18:29:40 82° ENE 18:35:17 10° SSE visible
05 Mar 5.2 20:10:51 10° WNW 20:12:48 12° W 20:14:44 10° WSW visible
